This demonstration page uses our WeatherBlox Daily Observations layout. Learn more.

Hourly Observations for June 12, 2019

Temp ( °F °C ) Dew Point ( °F °C ) Humidity (%) Winds ( mph kmh ) Pressure ( in mb ) Visibility ( mi km ) Precip ( " mm )
12:15 am 00:15 Clear 56 13.5 54 12.2 92 92 NW 7 11 30.06 1018 10 16.09344 0 0
12:35 am 00:35 Clear 56 13.2 54 12 93 93 NW 6 9 30.09 1019 10 16.09344 0 0
12:55 am 00:55 Clear 55 13 53 11.6 91 91 NW 6 9 30.12 1020 10 16.09344 0 0
1:15 am 01:15 Clear 56 13.1 53 11.5 90 90 NW 7 11 30.12 1020 10 16.09344 0 0
1:35 am 01:35 Clear 55 13 52 11.3 90 90 NW 6 9 30.09 1019 10 16.09344 0 0
1:55 am 01:55 Clear 55 12.8 52 11.3 91 91 NW 7 11 30.09 1019 10 16.09344 0 0
2:15 am 02:15 Clear 55 12.6 52 11.1 91 91 NW 6 9 30.09 1019 10 16.09344 0 0
2:35 am 02:35 Clear 55 12.8 51 10.8 88 88 NW 8 13 30.09 1019 10 16.09344 0 0
2:55 am 02:55 Clear 55 12.8 51 10.6 87 87 NW 8 13 30.09 1019 10 16.09344 0 0
3:15 am 03:15 Clear 55 12.6 51 10.6 88 88 NNW 8 13 30.09 1019 10 16.09344 0 0
3:35 am 03:35 Clear 55 12.6 51 10.5 87 87 NNW 9 15 30.09 1019 10 16.09344 0 0
3:55 am 03:55 Clear 54 12.2 51 10.5 89 89 NW 9 15 30.09 1019 10 16.09344 0 0
4:15 am 04:15 Clear 54 12.3 50 10.2 87 87 NW 10 17 30.09 1019 10 16.09344 0 0
4:35 am 04:35 Clear 54 12.1 50 10.2 88 88 NW 9 15 30.12 1020 10 16.09344 0 0
4:55 am 04:55 Clear 54 12.1 50 10.2 88 88 NW 9 15 30.12 1020 10 16.09344 0 0
5:15 am 05:15 Clear 53 11.8 50 10 89 89 NW 9 15 30.12 1020 10 16.09344 0 0
5:35 am 05:35 Clear 53 11.8 50 10 89 89 NW 10 17 30.12 1020 10 16.09344 0 0
5:55 am 05:55 Clear 53 11.6 50 10 90 90 NW 10 17 30.12 1020 10 16.09344 0 0
6:15 am 06:15 Sunny 53 11.8 50 9.8 88 88 NW 10 17 30.12 1020 10 16.09344 0 0
6:35 am 06:35 Sunny 54 12 50 9.8 87 87 NW 10 17 30.12 1020 10 16.09344 0 0
6:55 am 06:55 Partly Cloudy 54 12.1 49 9.7 85 85 NNW 8 13 30.12 1020 10 16.09344 0 0
7:15 am 07:15 Sunny 54 12.4 50 10 85 85 NNW 8 13 30.12 1020 10 16.09344 0 0
7:35 am 07:35 Sunny 55 12.6 50 10.1 85 85 NNW 13 20 30.12 1020 10 16.09344 0 0
7:55 am 07:55 Sunny 55 12.8 50 10.2 84 84 NNW 13 20 30.12 1020 10 16.09344 0 0
8:15 am 08:15 Sunny 56 13.3 51 10.7 84 84 NNW 13 20 30.12 1020 10 16.09344 0 0
8:35 am 08:35 Sunny 58 14.3 52 11.1 81 81 NNW 10 17 30.09 1019 10 16.09344 0 0
8:55 am 08:55 Sunny 59 15.1 52 10.9 76 76 N 12 19 30.12 1020 10 16.09344 0 0
9:15 am 09:15 Sunny 60 15.5 52 10.9 74 74 N 15 24 30.12 1020 10 16.09344 0 0
9:35 am 09:35 Sunny 61 16.1 52 11.3 73 73 N 15 24 30.12 1020 10 16.09344 0 0
9:55 am 09:55 Sunny 62 16.5 52 11.3 72 72 N 14 22 30.12 1020 10 16.09344 0 0
10:15 am 10:15 Sunny 63 17.1 53 11.5 70 70 N 13 20 30.12 1020 10 16.09344 0 0
10:35 am 10:35 Sunny 64 17.5 52 11.1 66 66 N 15 24 30.09 1019 10 16.09344 0 0
10:55 am 10:55 Partly Cloudy 64 17.9 53 11.4 66 66 N 16 26 30.09 1019 10 16.09344 0 0
11:15 am 11:15 Partly Cloudy 64 18 51 10.8 63 63 NNW 17 28 30.09 1019 10 16.09344 0 0
11:35 am 11:35 Partly Cloudy 64 18 51 10.4 61 61 N 8 13 30.09 1019 10 16.09344 0 0
11:55 am 11:55 Mostly Cloudy 65 18.4 51 10.8 61 61 N 18 30 30.09 1019 10 16.09344 0 0
12:15 pm 12:15 Mostly Cloudy 66 18.8 50 10.2 58 58 N 16 26 30.09 1019 10 16.09344 0 0
12:35 pm 12:35 Partly Cloudy 67 19.4 51 10.8 58 58 N 14 22 30.09 1019 10 16.09344 0 0
12:55 pm 12:55 Partly Cloudy 67 19.2 50 9.9 55 55 N 17 28 30.09 1019 10 16.09344 0 0
1:15 pm 13:15 Partly Cloudy 67 19.5 50 9.9 54 54 N 17 28 30.09 1019 10 16.09344 0 0
1:35 pm 13:35 Mostly Cloudy 68 19.9 48 9 50 50 N 14 22 30.09 1019 10 16.09344 0 0
1:55 pm 13:55 Mostly Cloudy 68 20.1 49 9.6 51 51 N 16 26 30.09 1019 10 16.09344 0 0
2:15 pm 14:15 Partly Cloudy 69 20.4 48 8.8 47 47 N 12 19 30.09 1019 10 16.09344 0 0
2:35 pm 14:35 Mostly Cloudy 69 20.3 49 9.5 50 50 N 17 28 30.09 1019 10 16.09344 0 0
2:55 pm 14:55 Partly Cloudy 69 20.5 47 8.1 45 45 NNE 13 20 30.09 1019 10 16.09344 0 0
3:15 pm 15:15 Partly Cloudy 67 19.6 45 7 44 44 NNE 16 26 30.09 1019 10 16.09344 0 0
3:35 pm 15:35 Partly Cloudy 69 20.8 45 7 41 41 NNW 12 19 30.03 1017 10 16.09344 0 0
3:55 pm 15:55 Partly Cloudy 69 20.3 44 6.6 41 41 NNE 13 20 30.09 1019 10 16.09344 0 0
4:15 pm 16:15 Partly Cloudy 69 20.5 44 6.8 41 41 N 9 15 30.09 1019 10 16.09344 0 0
4:35 pm 16:35 Sunny 69 20.4 43 6.1 39 39 N 10 17 30.09 1019 10 16.09344 0 0
4:55 pm 16:55 Partly Cloudy 69 20.8 43 6.2 39 39 NNE 12 19 30.03 1017 10 16.09344 0 0
5:15 pm 17:15 Partly Cloudy 69 20.8 44 6.5 40 40 N 6 9 30.03 1017 10 16.09344 0 0
5:35 pm 17:35 Partly Cloudy 69 20.7 43 6.1 39 39 N 9 15 30.03 1017 10 16.09344 0 0
5:55 pm 17:55 Partly Cloudy 69 20.7 43 6.1 39 39 N 7 11 30.03 1017 10 16.09344 0 0
6:15 pm 18:15 Partly Cloudy 69 20.7 41 5 36 36 N 7 11 30.03 1017 10 16.09344 0 0
6:35 pm 18:35 Sunny 69 20.7 42 5.4 37 37 N 3 6 30.03 1017 10 16.09344 0 0
6:55 pm 18:55 Sunny 69 20.5 42 5.3 37 37 NNW 9 15 30.06 1018 10 16.09344 0 0
7:15 pm 19:15 Sunny 69 20.3 42 5.3 38 38 NNE 5 7 30.06 1018 10 16.09344 0 0
7:35 pm 19:35 Sunny 68 20 42 5.3 38 38 Calm 30.06 1018 10 16.09344 0 0
7:55 pm 19:55 Sunny 67 19.6 42 5.8 41 41 Calm 30.06 1018 10 16.09344 0 0
8:15 pm 20:15 Sunny 66 19.1 43 6 43 43 NNE 6 9 30.06 1018 10 16.09344 0 0
8:35 pm 20:35 Sunny 65 18.2 45 7.3 49 49 NE 3 6 30.06 1018 10 16.09344 0 0
8:55 pm 20:55 Sunny 63 17.2 46 7.5 53 53 NE 3 6 30.06 1018 10 16.09344 0 0
9:15 pm 21:15 Clear 62 16.5 45 7.4 55 55 ENE 3 6 30.09 1019 10 16.09344 0 0
9:35 pm 21:35 Clear 62 16.4 46 7.7 57 57 E 3 6 30.09 1019 10 16.09344 0 0
9:55 pm 21:55 Clear 60 15.5 48 9 65 65 E 5 7 30.09 1019 10 16.09344 0 0
10:15 pm 22:15 Clear 60 15.6 47 8.2 62 62 E 5 7 30.09 1019 10 16.09344 0 0
10:35 pm 22:35 Clear 58 14.7 46 8 64 64 Calm 30.09 1019 10 16.09344 0 0
10:55 pm 22:55 Clear 59 15 46 7.7 62 62 Calm 30.09 1019 10 16.09344 0 0
11:15 pm 23:15 Clear 58 14.2 47 8.5 69 69 SE 5 7 30.09 1019 10 16.09344 0 0
11:35 pm 23:35 Clear 57 14.1 45 7.1 63 63 Calm 30.09 1019 10 16.09344 0 0
11:55 pm 23:55 Clear 56 13.5 45 7.3 66 66 S 3 6 30.12 1020 10 16.09344 0 0

Powered by AerisWeather